Location: Lafig�re
(44.4503°N, 4.0357°E)
Time: 15:12:35
(UTC+00:00)

deb Explorer IX - Pass Details

Date: 21 January 2021
Orbit: 537 x 1102 km, 38.8° (Epoch: 01 March)

Event Time Altitude Azimuth Distance (km) Brightness Sun altitude
Rises 19:16:57 0° 243° (WSW) 3,503 ? -28.1°
Reaches altitude 10° 19:19:51 10° 236° (SW) 2,465 ? -28.6°
Enters shadow 19:24:06 35° 197° (SSW) 1,227 ? -29.3°
Maximum altitude 19:25:11 39° 169° (S) 1,122 - -29.5°
Drops below altitude 10° 19:29:46 10° 101° (ESE) 2,114 - -30.4°
Sets 19:32:04 0° 94° (E) 2,949 - -30.8°
